User: anonymous   Login
Location: Newark
(42.3070°N, 2.7230°E)
Time: 18:07:07
(UTC+00:00)
Language:

Falcon 9 debris - Orbit

View from above orbital plane
View from above orbital plane
View from above satellite
View from above satellite

Ground track
Ground track

The orbit data is extracted from the following two-line orbital elements,

1 44298U 19029BR  19264.46204931  .00001098  00000-0  33008-4 0  9995
2 44298  53.0039 322.6649 0003634 317.8928  42.1797 15.43827719 19822
Epoch (UTC): 21 September 2019 11:05:21
Eccentricity: 0.0003634
inclination: 53.0039°
perigee height: 432 km
apogee height: 437 km
right ascension of ascending node: 322.6649°
argument of perigee: 317.8928°
revolutions per day: 15.43827719
mean anomaly at epoch: 42.1797°
orbit number at epoch: 1982

The dashed part of the orbit path shows where the satellite is in the earth's shadow,  

DLR